FW4090 Wirral UK current weather conditions

sailwx.info

Wind from 073 at 6 knots gusting 14

Air temperature 6.1° C
Dewpoint 3.6° C

Last reported at 2019-Nov-15 05:04 UTC.
Time now 2019-Nov-15 06:00 UTC

Location: N 53°23' W 003°06'.
View on Google Maps.

See reports from other nearby stations

  
Tides and Currents Weather Stations Pressure Air Temp Water Temp Dewpoint Dewpoint Depression Visibility Wind Speed Wind Dir Waves Ship Positions
date/time (UTC)wind fromknots sea level pressurealtimeterstation pressurevisibilityair tempwater tempwave heightnotes
2019-Nov-15 05:04 073 6 gusting 14 6.1
2019-Nov-15 04:49 072 5 gusting 14 6.1
2019-Nov-15 04:34 087 5 gusting 13 6.1
2019-Nov-15 04:19 085 5 gusting 15 6.1
2019-Nov-15 04:04 061 6 gusting 16 6.1
2019-Nov-15 03:49 072 6 gusting 13 6.1
2019-Nov-15 03:34 091 5 gusting 13 6.1
2019-Nov-15 03:19 091 6 gusting 14 6.1
2019-Nov-15 03:04 073 5 gusting 13 6.1
2019-Nov-15 02:49 067 6 gusting 16 6.1
2019-Nov-15 02:34 075 6 gusting 19 6.1
2019-Nov-15 02:19 086 5 gusting 14 6.1
2019-Nov-15 02:04 085 5 gusting 15 6.1
2019-Nov-15 01:49 078 6 gusting 17 6.1
2019-Nov-15 01:34 071 6 gusting 14 6.1
2019-Nov-15 01:19 086 6 gusting 18 6.1
2019-Nov-15 01:04 083 6 gusting 17 6.1
2019-Nov-15 00:49 072 6 gusting 15 6.1
2019-Nov-15 00:34 076 6 gusting 18 6.1
2019-Nov-15 00:19 071 7 gusting 15 6.1
2019-Nov-15 00:04 079 6 gusting 16 6.1
2019-Nov-14 23:49 069 6 gusting 16 6.1
2019-Nov-14 23:34 084 6 gusting 19 6.1
2019-Nov-14 23:19 039 6 gusting 16 6.1
2019-Nov-14 23:04 081 6 gusting 16 6.1
2019-Nov-14 22:49 051 6 gusting 15 6.1
2019-Nov-14 22:34 080 6 gusting 15 6.1
2019-Nov-14 22:19 073 6 gusting 16 6.1
2019-Nov-14 22:04 077 6 gusting 16 6.1
2019-Nov-14 21:49 076 6 gusting 14 6.1
2019-Nov-14 21:34 065 6 gusting 14 6.1
2019-Nov-14 21:19 067 6 gusting 17 6.1
2019-Nov-14 21:04 077 6 gusting 13 5.6
2019-Nov-14 20:49 067 6 gusting 18 5.6
2019-Nov-14 20:34 079 5 gusting 14 5.6
2019-Nov-14 20:19 077 5 gusting 15 6.1
2019-Nov-14 20:04 076 4 gusting 13 5.6
2019-Nov-14 19:49 068 5 gusting 12 5.6
2019-Nov-14 19:34 071 6 gusting 13 5.6
2019-Nov-14 19:19 040 6 gusting 13 6.1
2019-Nov-14 19:04 072 4 gusting 12 6.1
2019-Nov-14 18:49 072 5 gusting 15 6.1
2019-Nov-14 18:34 072 4 gusting 16 6.1
2019-Nov-14 18:19 068 4 gusting 13 6.1
2019-Nov-14 18:04 066 5 gusting 11 6.1
2019-Nov-14 17:49 079 5 gusting 15 6.1
2019-Nov-14 17:34 079 5 gusting 15 6.1
2019-Nov-14 17:19 079 5 gusting 16 6.1
2019-Nov-14 17:04 079 4 gusting 13 6.1
2019-Nov-14 16:49 077 4 gusting 10 6.1
2019-Nov-14 16:34 073 5 gusting 13 6.1
2019-Nov-14 16:19 071 5 gusting 13 6.1
2019-Nov-14 16:04 071 6 gusting 14 6.1
2019-Nov-14 15:49 071 5 gusting 14 6.1
2019-Nov-14 15:34 072 5 gusting 12 6.7
2019-Nov-14 15:19 072 5 gusting 12 6.7
2019-Nov-14 15:03 072 5 gusting 13 6.7
2019-Nov-14 14:49 071 5 gusting 14 6.7
2019-Nov-14 14:33 076 6 gusting 13 6.7
2019-Nov-14 14:18 072 5 gusting 13 6.7
2019-Nov-14 14:03 066 5 gusting 13 6.7
2019-Nov-14 13:49 063 5 gusting 19 6.7
2019-Nov-14 13:33 079 6 gusting 13 6.7
2019-Nov-14 13:19 074 6 gusting 15 6.7
2019-Nov-14 13:03 061 5 gusting 15 6.7
2019-Nov-14 12:48 070 5 gusting 14 6.7
2019-Nov-14 12:34 080 5 gusting 11 6.1
2019-Nov-14 12:19 059 6 gusting 14 6.1
2019-Nov-14 12:04 067 6 gusting 20 6.1
2019-Nov-14 11:49 065 6 gusting 14 6.1
2019-Nov-14 11:33 086 6 gusting 13 6.1
2019-Nov-14 11:18 106 6 gusting 19 6.1
2019-Nov-14 11:03 039 6 gusting 13 6.1
2019-Nov-14 10:49 084 5 gusting 14 5.6
2019-Nov-14 10:33 090 6 gusting 13 5.6
2019-Nov-14 10:19 055 6 gusting 16 5.6
2019-Nov-14 10:03 076 6 gusting 15 5.6
2019-Nov-14 09:48 117 5 gusting 14 5.6
2019-Nov-14 09:33 082 4 gusting 13 5.6
2019-Nov-14 09:18 087 5 gusting 12 5.0
2019-Nov-14 09:03 085 5 gusting 13 5.0
2019-Nov-14 08:48 081 5 gusting 13 5.0
2019-Nov-14 08:33 028 5 gusting 13 5.0
2019-Nov-14 08:18 100 4 gusting 12 5.0
2019-Nov-14 08:03 087 5 gusting 13 5.0
2019-Nov-14 07:48 122 4 gusting 12 4.4
2019-Nov-14 07:33 126 4 gusting 13 4.4
2019-Nov-14 07:18 127 3 gusting 10 4.4
2019-Nov-14 07:03 131 3 gusting 12 4.4
2019-Nov-14 06:48 131 4 gusting 13 4.4
2019-Nov-14 06:33 131 3 gusting 13 4.4
2019-Nov-14 06:18 133 3 gusting 10 4.4
2019-Nov-14 06:03 133 1 gusting 8 4.4
2019-Nov-14 05:48 133 2 gusting 9 4.4
2019-Nov-14 05:33 133 3 gusting 13 4.4
2019-Nov-14 05:18 133 4 gusting 11 4.4
2019-Nov-14 05:03 133 5 gusting 12 4.4
2019-Nov-14 04:48 136 4 gusting 15 4.4
2019-Nov-14 04:33 141 4 gusting 13 4.4
2019-Nov-14 04:18 143 5 gusting 10 4.4
2019-Nov-14 04:03 143 2 gusting 6 4.4
2019-Nov-14 03:48 143 3 gusting 13 4.4
2019-Nov-14 03:33 148 4 gusting 10 4.4
2019-Nov-14 03:18 149 2 gusting 11 4.4
2019-Nov-14 03:03 153 1 gusting 7 4.4
2019-Nov-14 02:48 153 2 gusting 9 4.4
2019-Nov-14 02:33 153 2 gusting 10 4.4
2019-Nov-14 02:18 153 3 gusting 11 4.4
2019-Nov-14 02:03 153 1 gusting 8 4.4
2019-Nov-14 01:48 153 4 gusting 13 4.4
2019-Nov-14 01:33 157 2 gusting 9 4.4
2019-Nov-14 01:18 158 2 gusting 9 4.4
2019-Nov-14 01:03 160 1 gusting 7 4.4
2019-Nov-14 00:48 160 3 gusting 8 4.4
2019-Nov-14 00:33 160 2 gusting 8 4.4
2019-Nov-14 00:18 160 2 gusting 10 4.4
2019-Nov-14 00:03 160 1 gusting 7 4.4
2019-Nov-13 23:48 160 2 gusting 7 4.4
2019-Nov-13 23:33 160 2 gusting 9 4.4
2019-Nov-13 23:18 160 3 gusting 9 4.4
2019-Nov-13 23:03 160 3 gusting 10 5.0
2019-Nov-13 22:48 160 3 gusting 12 4.4
2019-Nov-13 22:33 161 2 gusting 9 5.0
2019-Nov-13 22:18 162 3 gusting 11 5.0
2019-Nov-13 22:03 161 3 gusting 13 5.0
2019-Nov-13 21:48 164 3 gusting 12 4.4
2019-Nov-13 21:33 179 1 gusting 7 4.4
2019-Nov-13 21:18 179 1 gusting 9 4.4
2019-Nov-13 21:03 179 2 gusting 6 4.4
2019-Nov-13 20:48 179 3 gusting 11 5.0
2019-Nov-13 20:33 180 2 gusting 11 4.4
2019-Nov-13 20:18 183 2 gusting 8 4.4
2019-Nov-13 20:03 185 3 gusting 7 5.0
2019-Nov-13 19:48 193 2 gusting 9 5.0
2019-Nov-13 19:33 196 2 gusting 10 5.0
2019-Nov-13 19:18 196 2 gusting 9 5.0
2019-Nov-13 19:03 197 2 gusting 6 5.0
2019-Nov-13 18:48 196 1 gusting 7 5.0
2019-Nov-13 18:33 197 2 gusting 8 5.0
2019-Nov-13 18:18 197 2 gusting 9 5.0
2019-Nov-13 18:03 198 3 gusting 9 5.0
2019-Nov-13 17:48 199 2 gusting 9 5.0
2019-Nov-13 17:33 204 2 gusting 8 5.0
2019-Nov-13 17:18 204 2 gusting 8 5.0
2019-Nov-13 17:03 204 1 gusting 6 5.0
2019-Nov-13 16:48 204 1 gusting 6 5.6
2019-Nov-13 16:33 204 2 gusting 7 5.6
2019-Nov-13 16:18 204 3 gusting 8 5.6
2019-Nov-13 16:03 212 1 gusting 7 6.1
2019-Nov-13 15:48 212 2 gusting 8 6.1
2019-Nov-13 15:33 214 2 gusting 6 6.7
2019-Nov-13 15:18 214 2 gusting 6 6.7
2019-Nov-13 15:03 265 2 gusting 9 6.7
2019-Nov-13 14:48 265 3 gusting 8 7.2
2019-Nov-13 14:33 265 3 gusting 8 7.8
2019-Nov-13 14:18 265 3 gusting 9 7.8
2019-Nov-13 14:03 271 3 gusting 9 8.3
2019-Nov-13 13:48 272 3 gusting 7 8.3
2019-Nov-13 13:33 273 2 gusting 7 7.8
2019-Nov-13 13:18 273 3 gusting 8 7.8
2019-Nov-13 13:03 307 2 gusting 6 7.8
2019-Nov-13 12:48 320 2 gusting 6 7.8
2019-Nov-13 12:33 320 2 gusting 5 7.2
2019-Nov-13 12:18 320 1 gusting 4 7.2
2019-Nov-13 12:03 320 1 gusting 5 7.2
2019-Nov-13 11:48 320 1 gusting 5 7.2
2019-Nov-13 11:33 320 1 gusting 6 6.7
2019-Nov-13 11:18 320 1 gusting 5 6.7
2019-Nov-13 11:03 320 0 gusting 4 6.7
2019-Nov-13 10:48 320 1 gusting 4 6.1
2019-Nov-13 10:33 320 2 gusting 4 6.1
2019-Nov-13 10:18 320 2 gusting 4 6.7
2019-Nov-13 10:03 320 1 gusting 5 6.1
2019-Nov-13 09:48 320 2 gusting 6 5.6
2019-Nov-13 09:33 320 1 gusting 5 5.6
2019-Nov-13 09:18 320 0 gusting 2 5.6
2019-Nov-13 09:03 320 0 gusting 5 5.6
2019-Nov-13 08:48 320 0 gusting 3 5.6
2019-Nov-13 08:33 320 0 gusting 3 5.6
2019-Nov-13 08:18 320 0 gusting 5 5.6
2019-Nov-13 08:03 320 2 gusting 6 5.6
2019-Nov-13 07:48 320 3 gusting 6 5.6
2019-Nov-13 07:33 321 3 gusting 8 5.6
2019-Nov-13 07:18 322 3 gusting 8 5.6
2019-Nov-13 07:03 322 3 gusting 9 5.6
2019-Nov-13 06:48 322 3 gusting 8 5.6
2019-Nov-13 06:33 322 5 gusting 13 5.6
2019-Nov-13 06:18 320 6 gusting 14 6.1
2019-Nov-13 06:03 321 4 gusting 13 5.6